Regional Weather Roundup
Issued by NWS

Home | Current Version | Previous Version | Graphics & Text | Print | Product List | Glossary On
Versions: 1 2 3 4 5 6 7 8 9 10 11 12 13 14 15 16 17 18 19 20 21 22 23 24 25 26 27 28 29 30 31 32 33 34 35 36 37 38 39 40 41 42 43 44 45 46 47 48 49 50
000
ASUS43 KOAX 240202
RWRNE

WEATHER ROUNDUP FOR NEBRASKA
NATIONAL WEATHER SERVICE OMAHA NE
900 PM CDT SAT MAY 23 2015

NOTES: SATELLITE DATA IS BEING USED TO AUGMENT CLOUD COVER ABOVE
       12000 FEET.
       "FAIR" INDICATES FEW OR NO CLOUDS BELOW 12,000 FEET WITH NO
       SIGNIFICANT WEATHER AND/OR OBSTRUCTIONS TO VISIBILITY.

  * THESE STATIONS DO NOT REPORT WEATHER SUCH AS RAIN...SNOW OR FOG.

NEZ001>004-019>022-054>056-240300-
NEBRASKA PANHANDLE

CITY           SKY/WX    TMP DP  RH WIND       PRES   REMARKS
SCOTTSBLUFF    CLOUDY    55  54  96 SE6       29.92S
ALLIANCE       CLOUDY    56  53  90 E13       29.94R
CHADRON        LGT RAIN  55  53  93 NE9       29.96S
SIDNEY         RAIN      51  48  89 W3        29.93F FOG
$$

NEZ057>060-069>072-079>082-240300-
SOUTHWEST NEBRASKA

CITY           SKY/WX    TMP DP  RH WIND       PRES   REMARKS
NORTH PLATTE   LGT RAIN  56  54  93 E14       29.98F
IMPERIAL       CLOUDY    59  54  83 E13       29.91F
LEXINGTON      LGT RAIN  58  57  94 E10       29.98S
MCCOOK         CLOUDY    58  56  93 E15       29.93F
$$

NEZ005>010-023>029-035>040-094-240300-
NORTH CENTRAL NEBRASKA

CITY           SKY/WX    TMP DP  RH WIND       PRES   REMARKS
VALENTINE      CLOUDY    55  54  96 E10       30.03R
AINSWORTH      RAIN      56  55  97 E8        30.04R
BROKEN BOW     CLOUDY    57  56  96 E12       30.01R
ORD            LGT RAIN  57  54  89 E6        30.01R
$$

NEZ041-046>049-061>064-073>077-083>087-240300-
SOUTH CENTRAL NEBRASKA

CITY           SKY/WX    TMP DP  RH WIND       PRES   REMARKS
GRAND ISLAND   CLOUDY    59  56  89 E12       30.01R
HASTINGS       CLOUDY    59  56  89 E12       29.98S
KEARNEY *      CLOUDY    57  55  94 E12       30.00R
$$

NEZ011>018-030>034-042>045-240300-
NORTHEAST NEBRASKA

CITY           SKY/WX    TMP DP  RH WIND       PRES   REMARKS
NORFOLK        CLOUDY    59  57  93 E6        30.03F
BLAIR          CLOUDY    62  56  82 E5        30.05R
COLUMBUS *     CLOUDY    59  52  77 E10       30.06R
FREMONT        CLOUDY    63  58  83 E8        30.04S
TEKAMAH        CLOUDY    64  57  78 E6        30.04F
$$

NEZ050>053-065>068-078-088>093-240300-
SOUTHEAST NEBRASKA

CITY           SKY/WX    TMP DP  RH WIND       PRES   REMARKS
LINCOLN        CLOUDY    62  60  93 E10       30.02F
OMAHA EPPLEY   CLOUDY    63  60  90 SE7       30.04R
FALLS CITY     RAIN      62  60  93 E12       30.03F FOG
PLATTSMOUTH    CLOUDY    61  58  91 E9        30.03S
$$

NEZ044-045-051>053-067-240300-
OMAHA AREA

CITY           SKY/WX    TMP DP  RH WIND       PRES   REMARKS
OMAHA EPPLEY   CLOUDY    63  60  90 SE7       30.04R
BLAIR          CLOUDY    62  56  82 E5        30.05R
FREMONT        CLOUDY    63  58  83 E8        30.04S
OFFUTT AFB     CLOUDY    62  60  90 E9        30.03S
PLATTSMOUTH    CLOUDY    61  58  91 E9        30.03S
$$



USA.gov is the U.S. government's official web portal to all federal, state and local government web resources and services.